Wind_Speed
71 76 60 50 47 44 51 44 51 58 60 54 58 59 56 56 52 47 42 39 39 39 35 35 35 34 32 30 29 28 26 25 23 20 21 20 19 16 13 10 8 6 5
60 61 76 63 49 46 51 47 54 57 68 60 57 62 57 54 52 48 43 40 38 38 38 37 37 35 35 34 32 30 29 26 24 22 19 19 18 16 14 12 9 6 4
47 57 73 72 61 52 51 49 53 58 68 68 61 68 59 55 55 54 51 46 41 39 37 36 37 36 37 35 33 30 29 26 26 26 21 20 18 16 14 13 10 8 5
35 53 63 70 66 64 53 46 47 57 66 71 64 70 69 67 62 57 52 49 43 38 36 35 37 36 36 35 31 29 28 27 25 23 23 20 17 13 15 13 11 9 6
25 43 56 76 65 67 58 55 47 62 58 71 69 69 71 68 64 58 55 49 45 42 39 37 37 37 36 34 32 30 30 29 26 21 20 21 21 19 15 12 10 8 7
33 33 39 62 67 67 66 57 53 65 59 58 70 70 78 73 66 61 56 53 50 46 42 40 39 37 36 35 33 32 30 29 28 26 25 22 18 16 14 12 12 10 9
33 39 36 46 72 73 70 57 57 54 38 40 71 74 70 70 65 61 58 56 53 49 45 42 40 37 36 36 35 33 32 31 30 28 26 25 23 20 17 14 12 12 11
29 37 37 34 67 77 64 66 58 47 48 52 74 73 76 64 71 60 56 52 50 48 45 42 40 39 38 37 37 35 34 33 31 30 27 25 23 20 18 16 15 13 12
24 34 34 31 56 66 57 58 62 56 63 47 62 73 73 70 79 62 57 52 48 50 46 43 41 41 40 39 38 37 35 35 33 31 29 26 24 21 18 18 16 14 13
22 25 32 29 51 56 47 53 61 61 41 39 49 58 58 67 73 67 53 58 49 47 49 45 42 42 41 40 39 37 36 35 34 31 28 25 22 21 20 18 17 15 13
15 17 26 28 45 55 49 45 57 60 47 40 51 46 62 67 60 51 58 57 51 44 47 46 43 42 42 41 40 38 37 36 33 30 26 23 22 21 20 19 17 16 17
10 18 21 25 25 50 35 42 56 59 52 44 36 49 58 54 64 57 53 41 50 44 44 46 44 42 42 42 41 39 38 35 32 28 25 22 21 20 20 20 20 19 19
14 20 22 28 30 33 28 42 47 54 50 45 41 45 47 56 49 54 53 55 49 51 46 51 45 44 43 42 40 39 37 32 29 27 25 22 21 21 20 23 22 20 20
16 20 27 34 36 32 32 37 39 41 45 40 46 38 39 38 49 49 51 49 56 53 53 47 43 44 44 43 41 39 35 33 29 28 26 24 21 22 22 24 23 20 21
12 23 32 37 34 34 32 36 37 38 36 45 34 38 44 38 41 57 52 40 55 51 44 50 50 46 47 44 43 39 36 34 34 30 27 25 25 24 23 25 22 23 24
14 26 32 37 30 30 34 32 34 44 49 30 35 28 35 35 31 25 35 44 47 34 39 46 44 45 49 49 42 41 41 34 30 28 25 25 23 21 23 24 23 24 23
14 21 26 28 29 35 37 31 33 31 30 23 21 23 18 29 39 33 31 29 46 38 35 42 33 35 48 58 46 42 30 30 29 26 26 24 21 22 24 23 24 23 24
25 22 24 23 30 34 33 30 30 31 28 23 25 33 34 33 35 35 32 33 35 32 32 32 30 39 46 43 36 34 33 34 30 27 25 25 22 22 21 23 24 24 25
29 23 24 22 28 35 32 34 29 31 25 30 31 27 25 29 27 34 37 41 33 25 31 27 30 33 31 37 39 35 36 34 29 29 27 25 26 24 23 25 27 27 26
16 9 33 23 34 29 31 29 28 26 29 13 12 18 22 32 31 30 25 25 20 16 22 21 26 25 22 26 26 23 24 26 28 25 25 28 22 24 26 28 29 26 27
13 17 16 31 28 31 25 38 32 30 25 20 20 23 23 26 25 23 26 28 25 21 22 20 24 22 20 21 21 24 25 22 21 25 31 30 24 30 30 30 24 25 28
12 14 18 21 21 24 29 25 28 29 27 27 29 28 27 26 27 26 27 26 25 24 22 23 23 21 24 23 27 24 23 26 21 25 26 32 32 23 24 28 25 29 29
22 20 14 23 20 19 21 25 26 27 27 27 27 27 26 25 27 26 28 28 27 25 22 21 23 27 31 28 26 24 24 30 32 25 29 22 23 24 23 26 28 28 30
28 24 21 20 21 25 20 21 27 26 26 27 26 23 22 23 23 22 21 25 27 25 22 21 19 21 23 24 22 25 26 26 32 29 31 26 25 22 25 27 31 27 29
21 25 30 25 23 25 23 19 21 22 22 22 21 22 21 21 23 25 26 26 25 22 21 20 22 23 24 25 26 25 28 26 29 29 29 28 28 29 29 26 31 26 29
9 15 23 22 19 24 21 21 21 20 21 20 18 18 19 21 21 22 24 25 25 24 25 25 24 24 25 21 19 22 27 24 24 20 24 27 25 26 24 17 16 22 25
Wind_Direction
232 231 215 205 196 195 204 202 206 215 212 208 214 206 207 209 207 203 204 206 205 203 201 195 200 197 198 198 199 197 197 193 186 191 189 188 184 185 184 182 182 183 176
235 231 222 218 204 202 201 195 205 211 215 212 211 213 206 209 207 203 203 208 208 207 202 198 200 196 198 199 201 201 201 193 193 192 196 200 193 192 190 188 189 191 193
243 231 224 223 215 207 199 195 205 206 213 206 211 213 207 209 206 206 201 203 206 208 206 203 203 198 200 202 202 201 201 202 196 194 203 202 205 202 199 199 199 199 203
247 228 225 221 219 201 203 200 201 206 210 195 206 214 210 206 208 206 202 199 204 205 208 207 207 203 204 203 203 202 200 199 207 207 202 200 207 218 212 209 208 210 215
255 237 227 219 216 213 205 201 205 208 210 215 208 212 211 210 212 202 203 201 200 203 206 205 207 207 205 205 204 203 202 202 200 204 212 212 210 211 207 217 219 222 230
247 240 240 221 209 214 205 202 210 208 218 210 199 213 212 207 206 202 203 201 200 202 203 206 207 208 204 205 204 203 204 204 201 201 205 210 218 222 223 223 226 231 239
256 239 240 232 209 208 211 205 209 207 208 208 205 210 212 205 206 203 209 205 202 203 203 204 206 207 204 204 204 205 204 203 206 208 209 213 215 218 219 225 227 234 241
250 225 228 235 208 203 208 209 211 207 205 204 198 204 213 215 208 209 205 212 207 206 207 206 205 207 205 204 204 205 203 205 206 210 213 215 219 220 222 224 229 236 243
242 210 218 226 214 193 198 205 209 208 206 213 212 207 214 210 207 208 207 208 215 209 210 208 206 206 205 205 205 205 204 205 208 211 214 217 219 222 225 229 234 240 247
204 206 208 216 210 189 192 203 205 208 204 205 212 211 224 215 207 209 204 214 215 215 211 210 207 207 205 205 206 205 205 208 211 214 217 220 222 226 230 234 239 245 254
195 201 201 206 200 192 192 198 206 206 209 210 212 209 213 209 214 214 210 205 209 212 214 211 209 207 206 207 207 206 207 209 211 214 216 220 224 230 235 239 244 248 250
210 173 190 193 189 190 193 192 207 209 211 215 211 211 218 215 195 220 205 202 212 213 221 213 210 209 206 208 207 208 207 210 211 212 216 219 224 229 236 241 244 248 252
150 160 173 188 173 183 195 193 199 209 213 215 221 216 226 220 213 217 225 211 214 211 217 216 210 210 208 208 208 209 209 210 208 210 215 218 224 228 237 246 245 247 254
117 155 158 165 172 180 192 193 196 204 205 210 221 202 209 212 210 204 207 215 207 207 213 209 210 208 206 205 206 208 204 204 207 209 213 219 224 231 237 244 246 249 256
102 155 167 165 168 179 174 189 191 195 202 219 204 207 204 207 216 229 219 221 226 212 210 209 207 205 199 202 202 200 201 202 205 210 216 217 223 230 238 247 253 254 258
111 114 146 162 161 165 168 173 182 193 200 179 193 204 203 198 202 197 197 197 204 203 201 206 212 206 207 198 196 199 202 195 208 215 220 225 230 238 243 251 255 258 262
142 129 135 148 157 158 163 167 170 177 191 189 205 199 205 207 183 184 196 208 212 211 208 212 204 210 211 200 196 193 190 203 209 213 222 228 235 241 247 251 254 257 263
131 135 144 151 144 153 166 157 163 167 174 175 194 172 183 185 177 180 184 180 180 198 190 204 208 205 194 187 189 195 195 204 210 214 220 228 231 236 246 251 255 259 261
119 134 137 148 151 162 151 160 151 155 159 173 192 209 211 193 171 175 164 169 177 190 188 196 193 193 199 189 193 194 190 198 205 212 217 224 239 236 250 255 258 260 261
137 89 147 124 146 146 153 152 156 159 159 128 145 163 172 160 161 142 144 153 155 176 175 180 180 175 197 202 196 203 207 208 213 216 225 231 235 244 253 254 253 259 261
122 142 125 132 131 153 146 147 148 155 162 163 153 153 158 151 148 156 165 176 170 180 188 189 181 198 189 200 208 210 209 206 215 231 236 233 259 243 248 257 258 258 261
110 142 140 133 128 149 150 151 155 159 165 167 178 179 171 171 175 185 190 192 195 200 198 188 189 195 198 201 215 210 223 219 221 241 238 238 256 251 254 250 260 263 261
113 135 136 145 145 153 155 161 162 167 168 172 180 182 187 189 193 193 193 199 202 207 210 211 201 197 207 204 211 211 221 230 242 237 241 237 251 250 256 265 268 267 265
84 126 139 145 165 151 151 155 167 174 176 178 182 185 189 188 190 190 191 197 205 208 212 214 215 214 219 222 224 216 227 233 235 239 241 259 254 245 260 260 265 262 272
80 89 129 142 151 165 163 168 169 171 178 181 184 188 189 190 188 189 192 193 196 199 203 210 214 219 224 229 235 237 234 234 231 249 253 254 242 256 255 265 267 265 278
86 90 95 136 166 146 166 162 169 177 173 182 183 187 192 192 196 199 198 201 204 211 214 213 213 219 216 225 227 231 231 232 238 257 254 254 256 255 258 264 279 283 280
Height
2959 2968 2979 2987 2994 3002 3012 3020 3030 3039 3047 3052 3059 3068 3076 3085 3091 3102 3110 3116 3121 3126 3131 3137 3141 3147 3152 3157 3161 3166 3171 3174 3179 3183 3185 3188 3191 3193 3196 3198 3200 3202 3202
2946 2953 2966 2975 2983 2990 3000 3008 3022 3030 3032 3044 3051 3062 3071 3079 3087 3099 3106 3112 3117 3122 3127 3133 3138 3143 3147 3151 3157 3163 3167 3172 3177 3181 3184 3186 3190 3192 3194 3197 3198 3200 3202
2942 2945 2950 2961 2971 2981 2992 2999 3011 3020 3026 3029 3041 3055 3068 3073 3078 3087 3095 3102 3111 3117 3123 3130 3136 3141 3145 3149 3153 3160 3165 3171 3175 3178 3183 3184 3187 3190 3193 3195 3197 3199 3200
2932 2931 2934 2945 2958 2970 2980 2987 2997 3009 3016 2991 3022 3042 3053 3057 3065 3078 3090 3097 3106 3113 3120 3126 3132 3138 3143 3147 3152 3158 3163 3168 3173 3177 3180 3184 3187 3189 3191 3193 3195 3197 3198
2926 2925 2926 2933 2948 2958 2968 2979 2986 2992 3003 2993 3016 3032 3046 3054 3061 3072 3081 3091 3099 3106 3113 3121 3128 3134 3140 3145 3150 3154 3159 3165 3170 3175 3179 3182 3184 3185 3189 3192 3194 3195 3196
2918 2919 2919 2921 2933 2948 2958 2969 2979 2983 2991 2994 2999 3024 3035 3039 3056 3063 3072 3082 3090 3098 3107 3115 3123 3130 3136 3142 3147 3151 3157 3163 3167 3171 3175 3179 3183 3185 3187 3189 3191 3193 3194
2905 2908 2911 2911 2921 2933 2951 2960 2970 2978 2985 2992 2997 3015 3026 3027 3049 3059 3066 3076 3083 3091 3101 3111 3118 3126 3133 3137 3143 3148 3153 3158 3164 3168 3172 3176 3179 3181 3184 3186 3189 3190 3191
2889 2895 2903 2907 2914 2925 2939 2953 2964 2973 2982 2992 2989 3008 3017 3033 3046 3055 3063 3074 3083 3090 3097 3106 3113 3121 3128 3133 3138 3144 3150 3155 3160 3164 3168 3172 3176 3179 3182 3184 3186 3187 3189
2877 2884 2894 2899 2907 2919 2930 2946 2960 2971 2981 2989 2992 3000 3012 3026 3030 3050 3063 3072 3079 3083 3092 3102 3109 3116 3123 3128 3134 3140 3145 3150 3155 3160 3164 3169 3173 3176 3179 3181 3183 3184 3186
2872 2879 2887 2892 2902 2917 2927 2938 2952 2967 2977 2984 2992 2998 3006 3016 3017 3042 3053 3063 3072 3078 3087 3097 3105 3111 3117 3123 3130 3136 3141 3146 3151 3156 3161 3166 3170 3173 3176 3178 3180 3182 3183
2872 2876 2883 2890 2901 2917 2925 2934 2946 2961 2971 2980 2987 2994 3001 3011 3023 3025 3044 3055 3065 3074 3082 3091 3099 3105 3112 3118 3126 3132 3137 3142 3147 3153 3158 3163 3167 3170 3172 3175 3177 3178 3179
2873 2877 2883 2894 2903 2914 2924 2931 2944 2956 2968 2976 2983 2990 3002 3007 3016 3026 3035 3047 3059 3068 3076 3085 3093 3100 3107 3114 3122 3128 3133 3138 3144 3150 3154 3158 3162 3165 3168 3170 3172 3174 3175
2872 2875 2883 2893 2901 2915 2925 2933 2945 2955 2966 2974 2980 2988 2997 3007 3012 3023 3033 3044 3055 3063 3068 3077 3087 3095 3103 3110 3118 3124 3130 3135 3141 3146 3150 3154 3157 3160 3163 3165 3167 3169 3170
2873 2882 2888 2896 2905 2914 2924 2936 2945 2954 2963 2973 2979 2985 2995 3003 3010 3018 3027 3040 3049 3054 3063 3073 3082 3090 3098 3105 3112 3119 3125 3130 3136 3142 3145 3148 3151 3155 3158 3161 3163 3163 3166
2874 2879 2887 2897 2906 2916 2925 2936 2946 2954 2963 2973 2980 2984 2991 3000 3007 3014 3022 3033 3041 3048 3057 3066 3076 3081 3090 3100 3106 3114 3120 3126 3131 3136 3140 3143 3146 3149 3152 3156 3157 3159 3161
2883 2881 2888 2898 2907 2915 2925 2937 2944 2954 2962 2970 2979 2984 2990 2998 3004 3009 3017 3028 3036 3040 3048 3053 3065 3072 3082 3093 3100 3107 3114 3118 3126 3131 3135 3139 3142 3145 3148 3150 3152 3155 3156
2893 2894 2897 2904 2910 2917 2926 2936 2944 2954 2961 2970 2978 2985 2988 2996 3002 3010 3020 3026 3033 3039 3046 3054 3061 3064 3073 3080 3091 3097 3106 3115 3123 3126 3131 3134 3138 3141 3143 3145 3147 3149 3151
2899 2901 2905 2909 2914 2921 2929 2938 2947 2955 2963 2972 2979 2983 2988 2996 3002 3009 3015 3023 3031 3038 3045 3051 3057 3064 3071 3077 3087 3095 3102 3111 3116 3122 3127 3130 3133 3136 3137 3139 3141 3143 3145
2903 2908 2911 2914 2920 2925 2928 2940 2948 2956 2965 2973 2980 2986 2991 2998 3003 3007 3013 3023 3032 3039 3045 3051 3057 3063 3069 3075 3083 3088 3095 3104 3111 3117 3121 3124 3128 3130 3132 3134 3136 3137 3139
2911 2905 2913 2911 2924 2930 2937 2944 2952 2960 2968 2975 2980 2988 2991 2998 3005 3011 3020 3026 3032 3037 3042 3049 3055 3062 3069 3075 3080 3087 3093 3100 3105 3110 3116 3120 3122 3125 3127 3128 3129 3130 3133
2919 2920 2918 2923 2928 2934 2932 2944 2953 2962 2972 2980 2987 2990 2995 3001 3006 3013 3021 3028 3033 3039 3045 3052 3058 3063 3068 3073 3080 3086 3091 3097 3101 3107 3110 3114 3117 3118 3120 3122 3123 3124 3125
2922 2922 2925 2931 2935 2939 2944 2948 2957 2965 2973 2980 2987 2993 2998 3003 3007 3013 3021 3025 3030 3037 3044 3049 3056 3060 3066 3071 3076 3082 3088 3092 3098 3103 3106 3107 3111 3112 3115 3116 3116 3118 3119
2928 2929 2932 2935 2939 2946 2950 2956 2962 2968 2974 2981 2987 2991 2997 3001 3006 3013 3018 3022 3027 3035 3042 3048 3054 3059 3063 3066 3072 3079 3084 3089 3092 3097 3099 3102 3105 3106 3107 3110 3111 3111 3112
2933 2933 2935 2940 2944 2952 2955 2959 2965 2969 2975 2980 2986 2990 2995 3000 3005 3009 3014 3021 3028 3035 3040 3047 3051 3056 3060 3065 3068 3073 3078 3083 3088 3091 3093 3096 3098 3100 3101 3103 3104 3105 3104
2939 2938 2939 2945 2949 2953 2958 2962 2967 2970 2975 2979 2983 2988 2993 2998 3003 3008 3015 3021 3027 3032 3039 3045 3049 3055 3058 3062 3065 3069 3074 3078 3081 3084 3087 3090 3091 3093 3095 3096 3096 3097 3097
2944 2945 2943 2947 2951 2954 2958 2963 2967 2971 2975 2980 2983 2988 2993 2997 3002 3008 3011 3015 3021 3028 3034 3040 3045 3050 3053 3055 3060 3063 3068 3071 3075 3077 3080 3084 3086 3088 3089 3089 3090 3092 3092